This demonstration page uses our WeatherBlox Daily Observations layout. Learn more.

Hourly Observations for August 12, 2016

Temp ( °F °C ) Dew Point ( °F °C ) Humidity (%) Winds ( mph kmh ) Pressure ( in mb ) Visibility ( mi km ) Precip ( " mm )
12:15 am 00:15 Clear 70 21 67 19.4 91 91 NW 6 9 29.83 1010 10 16.09344 0 0
12:35 am 00:35 Clear 69 20.8 66 18.8 88 88 NW 6 9 29.83 1010 10 16.09344 0 0
12:55 am 00:55 Partly Cloudy 69 20.6 65 18.6 88 88 NW 7 11 29.85 1011 10 16.09344 0 0
1:15 am 01:15 Partly Cloudy 69 20.6 66 18.8 89 89 NW 7 11 29.85 1011 10 16.09344 0 0
1:35 am 01:35 Partly Cloudy 68 20.2 66 18.9 92 92 NW 6 9 29.85 1011 10 16.09344 0 0
1:55 am 01:55 Mostly Cloudy 69 20.6 67 19.3 92 92 NNW 9 15 29.85 1011 10 16.09344 0 0
2:15 am 02:15 Mostly Cloudy with Light Rain 68 20 64 17.7 87 87 NNW 23 37 29.91 1013 10 16.09344 0.01 0.254
2:35 am 02:35 Cloudy with Light Rain 65 18.6 64 17.5 93 93 NW 20 31 29.91 1013 5 8.04672 0.16 4.064
2:55 am 02:55 Partly Cloudy 65 18.5 62 16.7 89 89 NNW 20 31 29.91 1013 10 16.09344 0.16 4.064
3:15 am 03:15 Clear 66 19 63 17.1 89 89 N 15 24 29.91 1013 10 16.09344 0 0
3:35 am 03:35 Mostly Cloudy 66 19 63 17.1 89 89 NW 9 15 29.91 1013 10 16.09344 0 0
3:55 am 03:55 Cloudy 67 19.3 63 17 87 87 NNW 7 11 29.88 1012 10 16.09344 0 0
4:15 am 04:15 Partly Cloudy 67 19.2 63 17.2 88 88 NNW 7 11 29.85 1011 10 16.09344 0 0
4:35 am 04:35 Clear 67 19.2 64 17.5 90 90 NE 9 15 29.83 1010 10 16.09344 0 0
4:55 am 04:55 Clear 66 19 64 17.5 91 91 NE 3 6 29.83 1010 10 16.09344 0 0
5:15 am 05:15 Clear 66 19 64 17.5 91 91 Calm 29.83 1010 10 16.09344 0 0
5:35 am 05:35 Partly Cloudy 66 18.8 64 17.5 92 92 NW 5 7 29.88 1012 10 16.09344 0 0
5:55 am 05:55 Mostly Cloudy 66 18.8 64 17.6 93 93 WNW 10 17 29.91 1013 10 16.09344 0 0
6:15 am 06:15 Mostly Cloudy 66 19.1 63 17.4 90 90 WNW 8 13 29.91 1013 10 16.09344 0 0
6:35 am 06:35 Partly Cloudy 66 19.1 63 17.2 89 89 NNW 7 11 29.94 1014 10 16.09344 0 0
6:55 am 06:55 Partly Cloudy 66 19 63 17.4 91 91 N 7 11 29.94 1014 10 16.09344 0 0
7:15 am 07:15 Cloudy 67 19.2 64 17.5 90 90 N 8 13 29.94 1014 10 16.09344 0 0
7:35 am 07:35 Cloudy 67 19.2 64 17.5 90 90 NNW 8 13 29.94 1014 10 16.09344 0 0
7:55 am 07:55 Cloudy 67 19.3 64 17.5 89 89 N 7 11 29.94 1014 10 16.09344 0 0
8:15 am 08:15 Cloudy 67 19.3 64 17.5 89 89 N 9 15 29.94 1014 10 16.09344 0 0
8:35 am 08:35 Cloudy 67 19.5 64 17.8 90 90 N 9 15 29.91 1013 10 16.09344 0 0
8:55 am 08:55 Cloudy 67 19.7 64 17.9 89 89 N 9 15 29.97 1015 10 16.09344 0 0
9:15 am 09:15 Cloudy 67 19.3 64 17.8 91 91 N 10 17 29.97 1015 10 16.09344 0 0
9:35 am 09:35 Cloudy 67 19.6 64 17.7 89 89 N 8 13 29.97 1015 10 16.09344 0 0
9:55 am 09:55 Mostly Cloudy 68 20.1 64 17.5 85 85 N 9 15 29.94 1014 10 16.09344 0 0
10:15 am 10:15 Mostly Cloudy 70 20.9 65 18.1 84 84 N 8 13 29.94 1014 10 16.09344 0 0
10:35 am 10:35 Mostly Cloudy 70 21.2 64 17.7 81 81 N 9 15 29.94 1014 10 16.09344 0 0
10:55 am 10:55 Partly Cloudy 72 22.1 65 18.1 78 78 N 9 15 29.94 1014 10 16.09344 0 0
11:15 am 11:15 Partly Cloudy 73 22.9 64 17.9 74 74 N 12 19 29.94 1014 10 16.09344 0 0
11:35 am 11:35 Mostly Cloudy 72 22.3 64 17.7 75 75 N 8 13 29.94 1014 10 16.09344 0 0
11:55 am 11:55 Partly Cloudy 73 22.6 64 17.7 74 74 N 12 19 29.94 1014 10 16.09344 0 0
12:15 pm 12:15 Partly Cloudy 73 22.7 64 17.8 74 74 N 10 17 29.94 1014 10 16.09344 0 0
12:35 pm 12:35 Sunny 74 23.4 64 17.8 71 71 N 8 13 29.91 1013 10 16.09344 0 0
12:55 pm 12:55 Partly Cloudy 76 24.2 64 17.9 68 68 NNW 10 17 29.91 1013 10 16.09344 0 0
1:15 pm 13:15 Sunny 76 24.6 63 17.3 64 64 NNW 8 13 29.91 1013 10 16.09344 0 0
1:35 pm 13:35 Sunny 77 24.8 63 17.3 63 63 N 9 15 29.91 1013 10 16.09344 0 0
1:55 pm 13:55 Partly Cloudy 78 25.6 64 17.5 61 61 NW 8 13 29.91 1013 10 16.09344 0 0
2:15 pm 14:15 Sunny 79 26.1 63 17.3 58 58 N 9 15 29.91 1013 10 16.09344 0 0
2:35 pm 14:35 Sunny 79 26.3 62 16.4 55 55 N 9 15 29.91 1013 10 16.09344 0 0
2:55 pm 14:55 Sunny 80 26.9 60 15.7 50 50 NNW 8 13 29.91 1013 10 16.09344 0 0
3:15 pm 15:15 Sunny 81 27.1 60 15.6 49 49 NNE 8 13 29.88 1012 10 16.09344 0 0
3:35 pm 15:35 Partly Cloudy 82 27.6 60 15.6 48 48 N 7 11 29.88 1012 10 16.09344 0 0
3:55 pm 15:55 Sunny 81 27.4 59 14.8 46 46 N 13 20 29.88 1012 10 16.09344 0 0
4:15 pm 16:15 Sunny 82 27.8 57 14.1 43 43 N 9 15 29.88 1012 10 16.09344 0 0
4:35 pm 16:35 Sunny 82 28 58 14.6 44 44 N 7 11 29.88 1012 10 16.09344 0 0
4:55 pm 16:55 Sunny 83 28.2 56 13.6 41 41 N 7 11 29.88 1012 10 16.09344 0 0
5:15 pm 17:15 Sunny 83 28.2 57 13.9 42 42 NNE 8 13 29.88 1012 10 16.09344 0 0
5:35 pm 17:35 Sunny 83 28.3 56 13.1 39 39 NNE 8 13 29.88 1012 10 16.09344 0 0
5:55 pm 17:55 Sunny 82 28 55 12.8 39 39 N 7 11 29.88 1012 10 16.09344 0 0
6:15 pm 18:15 Sunny 82 27.6 58 14.3 44 44 NNE 6 9 29.85 1011 10 16.09344 0 0
6:35 pm 18:35 Sunny 82 27.7 58 14.2 44 44 N 3 6 29.85 1011 10 16.09344 0 0
6:55 pm 18:55 Sunny 81 27.3 59 15.2 48 48 NNE 5 7 29.85 1011 10 16.09344 0 0
7:15 pm 19:15 Sunny 81 27.1 60 15.3 48 48 Calm 29.85 1011 10 16.09344 0 0
7:35 pm 19:35 Sunny 80 26.5 60 15.6 51 51 NE 3 6 29.88 1012 10 16.09344 0 0
7:55 pm 19:55 Sunny 78 25.7 62 16.8 58 58 Calm 29.88 1012 10 16.09344 0 0
8:15 pm 20:15 Sunny 77 25.1 64 17.8 64 64 Calm 29.88 1012 10 16.09344 0 0
8:35 pm 20:35 Sunny 75 24.1 65 18.2 70 70 Calm 29.91 1013 10 16.09344 0 0
8:55 pm 20:55 Clear 73 22.6 65 18.5 78 78 Calm 29.94 1014 10 16.09344 0 0
9:15 pm 21:15 Clear 71 21.7 66 19 85 85 Calm 29.94 1014 10 16.09344 0 0
9:35 pm 21:35 Clear 70 21.3 65 18.5 84 84 Calm 29.94 1014 10 16.09344 0 0
9:55 pm 21:55 Clear 69 20.5 65 18.1 86 86 Calm 29.97 1015 10 16.09344 0 0
10:15 pm 22:15 Clear 69 20.4 64 17.9 86 86 Calm 29.97 1015 10 16.09344 0 0
10:35 pm 22:35 Clear 67 19.7 64 17.5 87 87 Calm 30 1016 10 16.09344 0 0
10:55 pm 22:55 Clear 68 19.8 64 17.6 87 87 Calm 30.03 1017 10 16.09344 0 0
11:15 pm 23:15 Clear 66 19.1 62 16.9 87 87 Calm 30 1016 10 16.09344 0 0
11:35 pm 23:35 Clear 66 19.1 63 17.1 88 88 SW 3 6 30 1016 10 16.09344 0 0
11:55 pm 23:55 Clear 65 18.5 62 16.7 89 89 Calm 30.03 1017 10 16.09344 0 0

Powered by AerisWeather